Regional Weather Roundup
Issued by NWS

Home | Current Version | Previous Version | Graphics & Text | Print | Product List | Glossary Off
Versions: 1 2 3 4 5 6 7 8 9 10 11 12 13 14 15 16 17 18 19 20 21 22 23 24 25 26 27 28 29 30 31 32 33 34 35 36 37 38 39 40 41 42 43 44 45 46 47 48 49 50

000
ASUS43 KMKX 060511
RWRWI

WISCONSIN REGIONAL WEATHER ROUNDUP
NATIONAL WEATHER SERVICE MILWAUKEE/SULLIVAN WI
1100 PM CST FRI FEB 05 2016

NOTE: "FAIR" INDICATES FEW OR NO CLOUDS BELOW 12,000 FEET WITH NO
SIGNIFICANT WEATHER AND/OR OBSTRUCTIONS TO VISIBILITY.

WIZ001-002-006>008-014>016-023>028-060600-
NORTHWEST WISCONSIN

CITY           SKY/WX    TMP DP  RH WIND       PRES   REMARKS
SUPERIOR ARPT  CLOUDY    26  17  68 SW9       30.12F WCI  16
ASHLAND        CLOUDY    24  15  68 SW7       30.12F WCI  16
HAYWARD        CLOUDY    22  14  71 SW7       30.12F WCI  13
SIREN          CLOUDY    25  20  82 SW7       30.15F WCI  17
CUMBERLAND     CLOUDY    23  19  86 SW8       30.14F WCI  14
RICE LAKE      CLOUDY    24  19  83 S6        30.17F WCI  17
CHETEK         CLOUDY    23  18  82 SW7       30.17F WCI  15
LADYSMITH      FLURRIES  22  16  77 S8        30.17S WCI  12
EAU CLAIRE     CLOUDY    23  15  71 SW9       30.19F WCI  13
MENOMONIE      CLOUDY    25  18  74 S8        30.20S WCI  16
NEW RICHMOND   CLOUDY    24  20  84 SW8       30.17F WCI  15
OSCEOLA        CLOUDY    25  21  85 S5        30.20F WCI  19
$$

WIZ003>005-009-010-017-018-060600-
NORTH CENTRAL WISCONSIN

CITY           SKY/WX    TMP DP  RH WIND       PRES   REMARKS
MANITOWISH WTR LGT SNOW  20  15  81 SW9       30.08F WCI   9
ARBOR VITAE    FLURRIES  22  15  75 SW7       30.09F WCI  13
WOODRUFF       FLURRIES  22  15  75 SW7       30.09F WCI  13
RHINELANDER    CLOUDY    20  13  74 SW12      30.10F WCI   8
EAGLE RIVER    FLURRIES  21  12  68 SW12G18   30.08F WCI   9
LAND O LAKES   LGT SNOW  22  14  72 W7        30.08S WCI  13
PHILLIPS       FLURRIES  20  15  81 SW8G18    30.11F WCI  11
TOMAHAWK       FLURRIES  20  14  78 CALM      30.14F
MEDFORD        FLURRIES  20  15  82 SW9       30.15F WCI   9
MERRILL        LGT SNOW  21  16  79 SW8       30.17F WCI  12
$$

WIZ029-030-035-036-043>047-060600-
CENTRAL WISCONSIN

CITY           SKY/WX    TMP DP  RH WIND       PRES   REMARKS
WAUSAU         FLURRIES  23  13  65 SW8       30.17F WCI  14
MOSINEE        CLOUDY    21  16  79 CALM      30.21S
MARSHFIELD     CLOUDY    22  13  68 SW10      30.18F WCI  11
STEVENS POINT  CLOUDY    21  15  76 SW8       30.21F WCI  12
WAUPACA        CLOUDY    26  19  73 SW6       30.23F WCI  19
WAUTOMA        CLOUDY    24  18  78 SW7       30.24F WCI  16
WISC RAPIDS    FLURRIES  23  16  74 SW7       30.23F WCI  15
CAMP DOUGLAS   CLOUDY    25  21  86 W5        30.24S WCI  19
$$

WIZ011>013-019>022-031-037>040-048>050-060600-
NORTHEAST WISCONSIN

CITY           SKY/WX    TMP DP  RH WIND       PRES   REMARKS
ANTIGO         CLOUDY    21  13  73 SW10      30.15F WCI   9
SHAWANO        CLOUDY    25  18  73 SW5       30.21F WCI  19
OCONTO         CLOUDY    22  17  83 SW6       30.21F WCI  14
STURGEON BAY   CLOUDY    23  14  68 SW12      30.23F WCI  12
GREEN BAY      CLOUDY    22  17  81 SW3       30.23F
MANITOWOC      CLOUDY    26  18  71 SW6       30.24F WCI  19
APPLETON       CLOUDY    23  18  80 S8        30.21F WCI  14
CLINTONVILLE   CLOUDY    23  18  80 SW6       30.22F WCI  16
OSHKOSH        CLOUDY    24  15  68 SW8       30.23F WCI  15
$$

WIZ032>034-041-042-053>061-060600-
SOUTHWEST WISCONSIN

CITY           SKY/WX    TMP DP  RH WIND       PRES   REMARKS
LA CROSSE      CLOUDY    24  17  74 S7        30.25F WCI  16
SPARTA         CLOUDY    24  18  75 SW5       30.25F WCI  19
VIROQUA        CLOUDY    23  20  86 SW9       30.22F WCI  13
BOSCOBEL       CLOUDY    26  21  81 W3        30.29S
PRAIRIE DU CHI CLOUDY    27  19  70 SW3       30.28F
PLATTEVILLE    PTCLDY    25  22  88 S3        30.27F
$$

WIZ056-057-062-063-064-067-068-060600-
SOUTH CENTRAL WISCONSIN

CITY           SKY/WX    TMP DP  RH WIND       PRES   REMARKS
REEDSBURG      CLOUDY    24  17  75 SW5       30.25S WCI  18
BARABOO/DELLS  CLOUDY    23  16  72 SW5       30.25R WCI  17
LONE ROCK      CLOUDY    26  18  71 SW7       30.28S WCI  18
MINERAL POINT  PTCLDY    27  23  86 S7        30.25F WCI  19
MADISON        CLOUDY    27  18  69 S9        30.26F WCI  18
MIDDLETON      CLOUDY    28  20  74 SW8       30.26F WCI  20
WATERTOWN      CLOUDY    27  20  77 S7        30.26F WCI  19
MONROE         MOCLDY    28  23  80 SW8       30.27S WCI  20
JANESVILLE     CLOUDY    30  25  80 SW5       30.29F WCI  25
$$

WIZ051-052-058>065-066-070>072-060600-
SOUTHEAST WISCONSIN

CITY           SKY/WX    TMP DP  RH WIND       PRES   REMARKS
MILWAUKEE      CLOUDY    29  19  66 SW6       30.28F WCI  23
WAUKESHA       CLOUDY    27  19  74 SW5       30.28F WCI  21
MILWAUKEE/TIMM CLOUDY    28  19  69 SW6       30.28F WCI  22
RACINE         CLOUDY    28  19  69 SW5       30.30F WCI  23
BURLINGTON     PTCLDY    25  20  82 CALM      30.29F
KENOSHA        CLOUDY    27  19  72 SW3       30.29F
FOND DU LAC    CLOUDY    25  16  68 SW7       30.24F WCI  17
SHEBOYGAN        N/A     24  16  71 SW8       30.24F WCI  15
WEST BEND      CLOUDY    27  18  69 CALM      30.25F
JUNEAU         CLOUDY    25  18  77 S10       30.26F WCI  14
$$

LSZ147-162-060600-
LAKE SUPERIOR

STATION/POSITION TIME  TEMP    WIND        PRES    WAVE
                       AIR SEA DIR/SP/G            HT/PER
                 (UTC) (F)     (DEG/KT/KT) (MB)    (FT/S)
DEVILS ISLAND    0500   28     240/ 23/ 27 1019.4F
PORT WING        0300   27     220/  7/ 16   N/A
SAXON HARBOR     0440   25                 1020.0S
$$

LMZ867-665-643>646-060600-
LAKE MICHIGAN

STATION/POSITION TIME  TEMP    WIND        PRES    WAVE
                       AIR SEA DIR/SP/G            HT/PER
                 (UTC) (F)     (DEG/KT/KT) (MB)    (FT/S)
CHAMBERS ISLAND  0400   22     190/  8/ 12 1023.0F
ALGOMA LAKESHORE 0411          240/  8/ 10   N/A
KEWAUNEE LAKESHO 0400   24     280/  7/ 11 1023.3F
SHEBOYGAN LAKESH 0500   27     230/ 10/ 12 1025.3F
PORT WASHINGTON  0400   29     250/  7/ 10 1026.1F
MILWAUKEE LAKESH 0410   30     260/  9/ 12   N/A
KENOSHA   LAKESH 0500   29     250/  4/  7 1025.7F
$$

TC  - TEMPERATURE IN CELSIUS
VSB - VISIBILITY IN STATUTE MILES
WCI - WIND CHILL INDEX
HX  - HEAT INDEX




USA.gov is the U.S. government's official web portal to all federal, state and local government web resources and services.